Year,Month,Day,Hour,Minute,Value (Times are PST for temperature in C)
2009,09,27,00,00,10.30
2009,09,27,00,01,10.30
2009,09,27,00,02,10.30
2009,09,27,00,03,10.30
2009,09,27,00,04,10.30
2009,09,27,00,05,10.30
2009,09,27,00,06,10.30
2009,09,27,00,07,10.30
2009,09,27,00,08,10.20
2009,09,27,00,09,10.20
2009,09,27,00,10,10.20
2009,09,27,00,11,10.20
2009,09,27,00,12,10.10
2009,09,27,00,13,10.10
2009,09,27,00,14,10.10
2009,09,27,00,15,10.10
2009,09,27,00,16,10.00
2009,09,27,00,17,10.00
2009,09,27,00,18,10.00
2009,09,27,00,19,10.00
2009,09,27,00,20,9.90
2009,09,27,00,21,9.90
2009,09,27,00,22,9.90
2009,09,27,00,23,9.90
2009,09,27,00,24,9.90
2009,09,27,00,25,9.90
2009,09,27,00,26,9.90
2009,09,27,00,27,9.80
2009,09,27,00,28,9.80
2009,09,27,00,29,9.80
2009,09,27,00,30,9.80
2009,09,27,00,31,9.80
2009,09,27,00,32,9.70
2009,09,27,00,33,9.70
2009,09,27,00,34,9.70
2009,09,27,00,35,9.70
2009,09,27,00,36,9.70
2009,09,27,00,37,9.60
2009,09,27,00,38,9.60
2009,09,27,00,39,9.60
2009,09,27,00,40,9.60
2009,09,27,00,41,9.60
2009,09,27,00,42,9.50
2009,09,27,00,43,9.50
2009,09,27,00,44,9.50
2009,09,27,00,45,9.40
2009,09,27,00,46,9.40
2009,09,27,00,47,9.40
2009,09,27,00,48,9.40
2009,09,27,00,49,9.40
2009,09,27,00,50,9.30
2009,09,27,00,51,9.30
2009,09,27,00,52,9.30
2009,09,27,00,53,9.30
2009,09,27,00,54,9.30
2009,09,27,00,55,9.30
2009,09,27,00,56,9.30
2009,09,27,00,57,9.30
2009,09,27,00,58,9.30
2009,09,27,00,59,9.30
2009,09,27,01,00,9.20
2009,09,27,01,01,9.20
2009,09,27,01,02,9.20
2009,09,27,01,03,9.20
2009,09,27,01,04,9.20
2009,09,27,01,05,9.20
2009,09,27,01,06,9.20
2009,09,27,01,07,9.20
2009,09,27,01,08,9.20
2009,09,27,01,09,9.20
2009,09,27,01,10,9.20
2009,09,27,01,11,9.20
2009,09,27,01,12,9.20
2009,09,27,01,13,9.20
2009,09,27,01,14,9.20
2009,09,27,01,15,9.20
2009,09,27,01,16,9.20
2009,09,27,01,17,9.20
2009,09,27,01,18,9.20
2009,09,27,01,19,9.20
2009,09,27,01,20,9.20
2009,09,27,01,21,9.20
2009,09,27,01,22,9.10
2009,09,27,01,23,9.10
2009,09,27,01,24,9.10
2009,09,27,01,25,9.10
2009,09,27,01,26,9.10
2009,09,27,01,27,9.10
2009,09,27,01,28,9.10
2009,09,27,01,29,9.10
2009,09,27,01,30,9.20
2009,09,27,01,31,9.20
2009,09,27,01,32,9.20
2009,09,27,01,33,9.20
2009,09,27,01,34,9.20
2009,09,27,01,35,9.20
2009,09,27,01,36,9.20
2009,09,27,01,37,9.20
2009,09,27,01,38,9.20
2009,09,27,01,39,9.10
2009,09,27,01,40,9.10
2009,09,27,01,41,9.10
2009,09,27,01,42,9.10
2009,09,27,01,43,9.10
2009,09,27,01,44,9.10
2009,09,27,01,45,9.10
2009,09,27,01,46,9.10
2009,09,27,01,47,9.10
2009,09,27,01,48,9.10
2009,09,27,01,49,9.10
2009,09,27,01,50,9.10
2009,09,27,01,51,9.10
2009,09,27,01,52,9.10
2009,09,27,01,53,9.10
2009,09,27,01,54,9.10
2009,09,27,01,55,9.10
2009,09,27,01,56,9.10
2009,09,27,01,57,9.00
2009,09,27,01,58,9.00
2009,09,27,01,59,9.00
2009,09,27,02,00,9.00
2009,09,27,02,01,9.00
2009,09,27,02,02,8.90
2009,09,27,02,03,8.90
2009,09,27,02,04,8.90
2009,09,27,02,05,8.90
2009,09,27,02,06,8.90
2009,09,27,02,07,8.80
2009,09,27,02,08,8.80
2009,09,27,02,09,8.80
2009,09,27,02,10,8.80
2009,09,27,02,11,8.80
2009,09,27,02,12,8.80
2009,09,27,02,13,8.70
2009,09,27,02,14,8.70
2009,09,27,02,15,8.70
2009,09,27,02,16,8.70
2009,09,27,02,17,8.70
2009,09,27,02,18,8.70
2009,09,27,02,19,8.70
2009,09,27,02,20,8.70
2009,09,27,02,21,8.60
2009,09,27,02,22,8.60
2009,09,27,02,23,8.60
2009,09,27,02,24,8.60
2009,09,27,02,25,8.60
2009,09,27,02,26,8.60
2009,09,27,02,27,8.60
2009,09,27,02,28,8.60
2009,09,27,02,29,8.60
2009,09,27,02,30,8.50
2009,09,27,02,31,8.50
2009,09,27,02,32,8.50
2009,09,27,02,33,8.50
2009,09,27,02,34,8.40
2009,09,27,02,35,8.40
2009,09,27,02,36,8.40
2009,09,27,02,37,8.40
2009,09,27,02,38,8.40
2009,09,27,02,39,8.40
2009,09,27,02,40,8.40
2009,09,27,02,41,8.40
2009,09,27,02,42,8.40
2009,09,27,02,43,8.30
2009,09,27,02,44,8.30
2009,09,27,02,45,8.30
2009,09,27,02,46,8.30
2009,09,27,02,47,8.30
2009,09,27,02,48,8.30
2009,09,27,02,49,8.30
2009,09,27,02,50,8.30
2009,09,27,02,51,8.30
2009,09,27,02,52,8.30
2009,09,27,02,53,8.30
2009,09,27,02,54,8.30
2009,09,27,02,55,8.20
2009,09,27,02,56,8.20
2009,09,27,02,57,8.20
2009,09,27,02,58,8.20
2009,09,27,02,59,8.20
2009,09,27,03,00,8.10
2009,09,27,03,01,8.10
2009,09,27,03,02,8.10
2009,09,27,03,03,8.10
2009,09,27,03,04,8.10
2009,09,27,03,05,8.00
2009,09,27,03,06,8.00
2009,09,27,03,07,8.00
2009,09,27,03,08,8.00
2009,09,27,03,09,8.00
2009,09,27,03,10,8.00
2009,09,27,03,11,8.00
2009,09,27,03,12,8.00
2009,09,27,03,13,8.00
2009,09,27,03,14,8.00
2009,09,27,03,15,8.10
2009,09,27,03,16,8.20
2009,09,27,03,17,8.20
2009,09,27,03,18,8.30
2009,09,27,03,19,8.30
2009,09,27,03,20,8.30
2009,09,27,03,21,8.40
2009,09,27,03,22,8.40
2009,09,27,03,23,8.40
2009,09,27,03,24,8.40
2009,09,27,03,25,8.40
2009,09,27,03,26,8.40
2009,09,27,03,27,8.40
2009,09,27,03,28,8.40
2009,09,27,03,29,8.40
2009,09,27,03,30,8.40
2009,09,27,03,31,8.40
2009,09,27,03,32,8.40
2009,09,27,03,33,8.40
2009,09,27,03,34,8.40
2009,09,27,03,35,8.30
2009,09,27,03,36,8.30
2009,09,27,03,37,8.30
2009,09,27,03,38,8.30
2009,09,27,03,39,8.30
2009,09,27,03,40,8.30
2009,09,27,03,41,8.30
2009,09,27,03,42,8.30
2009,09,27,03,43,8.30
2009,09,27,03,44,8.30
2009,09,27,03,45,8.30
2009,09,27,03,46,8.30
2009,09,27,03,47,8.30
2009,09,27,03,48,8.30
2009,09,27,03,49,8.30
2009,09,27,03,50,8.30
2009,09,27,03,51,8.20
2009,09,27,03,52,8.20
2009,09,27,03,53,8.20
2009,09,27,03,54,8.20
2009,09,27,03,55,8.20
2009,09,27,03,56,8.20
2009,09,27,03,57,8.20
2009,09,27,03,58,8.20
2009,09,27,03,59,8.20
2009,09,27,04,00,8.20
2009,09,27,04,01,8.20
2009,09,27,04,02,8.10
2009,09,27,04,03,8.10
2009,09,27,04,04,8.10
2009,09,27,04,05,8.10
2009,09,27,04,06,8.10
2009,09,27,04,07,8.10
2009,09,27,04,08,8.00
2009,09,27,04,09,8.00
2009,09,27,04,10,8.00
2009,09,27,04,11,7.90
2009,09,27,04,12,7.90
2009,09,27,04,13,7.90
2009,09,27,04,14,7.90
2009,09,27,04,15,7.90
2009,09,27,04,16,7.80
2009,09,27,04,17,7.80
2009,09,27,04,18,7.80
2009,09,27,04,19,7.80
2009,09,27,04,20,7.80
2009,09,27,04,21,7.80
2009,09,27,04,22,7.80
2009,09,27,04,23,7.70
2009,09,27,04,24,7.70
2009,09,27,04,25,7.70
2009,09,27,04,26,7.70
2009,09,27,04,27,7.70
2009,09,27,04,28,7.70
2009,09,27,04,29,7.70
2009,09,27,04,30,7.70
2009,09,27,04,31,7.60
2009,09,27,04,32,7.60
2009,09,27,04,33,7.60
2009,09,27,04,34,7.60
2009,09,27,04,35,7.60
2009,09,27,04,36,7.60
2009,09,27,04,37,7.60
2009,09,27,04,38,7.60
2009,09,27,04,39,7.60
2009,09,27,04,40,7.60
2009,09,27,04,41,7.60
2009,09,27,04,42,7.50
2009,09,27,04,43,7.50
2009,09,27,04,44,7.50
2009,09,27,04,45,7.50
2009,09,27,04,46,7.50
2009,09,27,04,47,7.50
2009,09,27,04,48,7.50
2009,09,27,04,49,7.50
2009,09,27,04,50,7.50
2009,09,27,04,51,7.50
2009,09,27,04,52,7.50
2009,09,27,04,53,7.50
2009,09,27,04,54,7.50
2009,09,27,04,55,7.50
2009,09,27,04,56,7.50
2009,09,27,04,57,7.50
2009,09,27,04,58,7.50
2009,09,27,04,59,7.50
2009,09,27,05,00,7.50
2009,09,27,05,01,7.50
2009,09,27,05,02,7.50
2009,09,27,05,03,7.40
2009,09,27,05,04,7.40
2009,09,27,05,05,7.40
2009,09,27,05,06,7.40
2009,09,27,05,07,7.40
2009,09,27,05,08,7.40
2009,09,27,05,09,7.40
2009,09,27,05,10,7.40
2009,09,27,05,11,7.40
2009,09,27,05,12,7.40
2009,09,27,05,13,7.30
2009,09,27,05,14,7.30
2009,09,27,05,15,7.30
2009,09,27,05,16,7.30
2009,09,27,05,17,7.30
2009,09,27,05,18,7.30
2009,09,27,05,19,7.30
2009,09,27,05,20,7.30
2009,09,27,05,21,7.30
2009,09,27,05,22,7.30
2009,09,27,05,23,7.30
2009,09,27,05,24,7.30
2009,09,27,05,25,7.30
2009,09,27,05,26,7.30
2009,09,27,05,27,7.30
2009,09,27,05,28,7.30
2009,09,27,05,29,7.30
2009,09,27,05,30,7.30
2009,09,27,05,31,7.20
2009,09,27,05,32,7.20
2009,09,27,05,33,7.20
2009,09,27,05,34,7.20
2009,09,27,05,35,7.20
2009,09,27,05,36,7.20
2009,09,27,05,37,7.20
2009,09,27,05,38,7.20
2009,09,27,05,39,7.20
2009,09,27,05,40,7.20
2009,09,27,05,41,7.20
2009,09,27,05,42,7.20
2009,09,27,05,43,7.20
2009,09,27,05,44,7.20
2009,09,27,05,45,7.20
2009,09,27,05,46,7.20
2009,09,27,05,47,7.20
2009,09,27,05,48,7.20
2009,09,27,05,49,7.20
2009,09,27,05,50,7.20
2009,09,27,05,51,7.20
2009,09,27,05,52,7.20
2009,09,27,05,53,7.20
2009,09,27,05,54,7.20
2009,09,27,05,55,7.20
2009,09,27,05,56,7.30
2009,09,27,05,57,7.30
2009,09,27,05,58,7.30
2009,09,27,05,59,7.30
2009,09,27,06,00,7.40
2009,09,27,06,01,7.40
2009,09,27,06,02,7.40
2009,09,27,06,03,7.40
2009,09,27,06,04,7.40
2009,09,27,06,05,7.40
2009,09,27,06,06,7.40
2009,09,27,06,07,7.40
2009,09,27,06,08,7.40
2009,09,27,06,09,7.40
2009,09,27,06,10,7.40
2009,09,27,06,11,7.40
2009,09,27,06,12,7.40
2009,09,27,06,13,7.40
2009,09,27,06,14,7.40
2009,09,27,06,15,7.30
2009,09,27,06,16,7.30
2009,09,27,06,17,7.30
2009,09,27,06,18,7.30
2009,09,27,06,19,7.30
2009,09,27,06,20,7.40
2009,09,27,06,21,7.40
2009,09,27,06,22,7.40
2009,09,27,06,23,7.50
2009,09,27,06,24,7.50
2009,09,27,06,25,7.60
2009,09,27,06,26,7.60
2009,09,27,06,27,7.70
2009,09,27,06,28,7.80
2009,09,27,08,35,10.60
2009,09,27,08,36,10.70
2009,09,27,08,37,10.70
2009,09,27,08,38,10.80
2009,09,27,08,39,10.80
2009,09,27,08,40,10.90
2009,09,27,08,41,10.90
2009,09,27,08,42,11.00
2009,09,27,08,43,11.10
2009,09,27,08,44,11.10
2009,09,27,08,45,11.20
2009,09,27,08,46,11.30
2009,09,27,08,47,11.30
2009,09,27,08,48,11.30
2009,09,27,08,49,11.40
2009,09,27,08,50,11.50
2009,09,27,08,51,11.60
2009,09,27,08,52,11.60
2009,09,27,08,53,11.70
2009,09,27,08,54,11.80
2009,09,27,08,55,11.90
2009,09,27,08,56,12.00
2009,09,27,08,57,12.00
2009,09,27,08,58,12.00
2009,09,27,08,59,12.10
2009,09,27,09,00,12.20
2009,09,27,09,01,12.20
2009,09,27,09,02,12.30
2009,09,27,09,03,12.30
2009,09,27,09,04,12.40
2009,09,27,09,05,12.40
2009,09,27,09,06,12.50
2009,09,27,09,07,12.60
2009,09,27,09,08,12.60
2009,09,27,09,09,12.70
2009,09,27,09,10,12.70
2009,09,27,09,11,12.80
2009,09,27,09,12,12.80
2009,09,27,09,13,12.80
2009,09,27,09,14,12.80
2009,09,27,09,15,12.80
2009,09,27,09,16,12.90
2009,09,27,09,17,12.90
2009,09,27,09,18,12.90
2009,09,27,09,19,12.90
2009,09,27,09,20,12.90
2009,09,27,09,21,12.90
2009,09,27,09,22,12.90
2009,09,27,09,23,13.00
2009,09,27,09,24,13.00
2009,09,27,09,25,13.00
2009,09,27,09,26,13.00
2009,09,27,09,27,13.00
2009,09,27,09,28,13.00
2009,09,27,09,29,13.00
2009,09,27,09,30,13.00
2009,09,27,09,31,13.00
2009,09,27,09,32,13.00
2009,09,27,09,33,13.00
2009,09,27,09,34,13.00
2009,09,27,09,35,13.00
2009,09,27,09,36,13.00
2009,09,27,09,37,13.00
2009,09,27,09,38,13.00
2009,09,27,09,39,13.00
2009,09,27,09,40,13.00
2009,09,27,09,41,13.00
2009,09,27,09,42,13.10
2009,09,27,09,43,13.10
2009,09,27,09,44,13.10
2009,09,27,09,45,13.20
2009,09,27,09,46,13.30
2009,09,27,09,47,13.40
2009,09,27,09,48,13.40
2009,09,27,09,49,13.40
2009,09,27,09,50,13.50
2009,09,27,09,51,13.50
2009,09,27,09,52,13.60
2009,09,27,09,53,13.60
2009,09,27,09,54,13.60
2009,09,27,09,55,13.60
2009,09,27,09,56,13.70
2009,09,27,09,57,13.70
2009,09,27,09,58,13.70
2009,09,27,09,59,13.70
2009,09,27,10,00,13.70
2009,09,27,10,01,13.70
2009,09,27,10,02,13.70
2009,09,27,10,03,13.70
2009,09,27,10,04,13.70
2009,09,27,10,05,13.70
2009,09,27,10,06,13.70
2009,09,27,10,07,13.70
2009,09,27,10,08,13.80
2009,09,27,10,09,13.80
2009,09,27,10,10,13.90
2009,09,27,10,11,14.00
2009,09,27,10,12,14.00
2009,09,27,10,13,14.10
2009,09,27,10,14,14.20
2009,09,27,10,15,14.20
2009,09,27,10,16,14.20
2009,09,27,10,17,14.20
2009,09,27,10,18,14.20
2009,09,27,10,19,14.20
2009,09,27,10,20,14.20
2009,09,27,10,21,14.30
2009,09,27,10,22,14.30
2009,09,27,10,23,14.30
2009,09,27,10,24,14.30
2009,09,27,10,25,14.30
2009,09,27,10,26,14.30
2009,09,27,10,27,14.40
2009,09,27,10,28,14.40
2009,09,27,10,29,14.40
2009,09,27,10,30,14.40
2009,09,27,10,31,14.40
2009,09,27,10,32,14.40
2009,09,27,10,33,14.50
2009,09,27,10,34,14.50
2009,09,27,10,35,14.60
2009,09,27,10,36,14.70
2009,09,27,10,37,14.70
2009,09,27,10,38,14.70
2009,09,27,10,39,14.80
2009,09,27,10,40,14.80
2009,09,27,10,41,14.80
2009,09,27,10,42,14.80
2009,09,27,10,43,14.80
2009,09,27,10,44,14.80
2009,09,27,10,45,14.80
2009,09,27,10,46,14.90
2009,09,27,10,47,14.90
2009,09,27,10,48,15.00
2009,09,27,10,49,15.00
2009,09,27,10,50,15.00
2009,09,27,10,51,15.00
2009,09,27,10,52,15.00
2009,09,27,10,53,15.00
2009,09,27,10,54,15.00
2009,09,27,10,55,15.00
2009,09,27,10,56,15.10
2009,09,27,10,57,15.10
2009,09,27,10,58,15.20
2009,09,27,10,59,15.20
2009,09,27,11,00,15.30
2009,09,27,11,01,15.30
2009,09,27,11,02,15.40
2009,09,27,11,03,15.40
2009,09,27,11,04,15.40
2009,09,27,11,05,15.30
2009,09,27,11,06,15.30
2009,09,27,11,07,15.30
2009,09,27,11,08,15.30
2009,09,27,11,09,15.30
2009,09,27,11,10,15.30
2009,09,27,11,11,15.30
2009,09,27,11,12,15.30
2009,09,27,11,13,15.40
2009,09,27,11,14,15.40
2009,09,27,11,15,15.30
2009,09,27,11,16,15.30
2009,09,27,11,17,15.30
2009,09,27,11,18,15.30
2009,09,27,11,19,15.30
2009,09,27,11,20,15.20
2009,09,27,11,21,15.20
2009,09,27,11,22,15.30
2009,09,27,11,23,15.30
2009,09,27,11,24,15.30
2009,09,27,11,25,15.40
2009,09,27,11,26,15.40
2009,09,27,11,27,15.50
2009,09,27,11,28,15.50
2009,09,27,11,29,15.60
2009,09,27,11,30,15.60
2009,09,27,11,31,15.70
2009,09,27,11,32,15.70
2009,09,27,11,33,15.70
2009,09,27,11,34,15.70
2009,09,27,11,35,15.80
2009,09,27,11,36,15.80
2009,09,27,11,37,15.80
2009,09,27,11,38,15.90
2009,09,27,11,39,15.90
2009,09,27,11,40,15.90
2009,09,27,11,41,15.90
2009,09,27,11,42,16.00
2009,09,27,11,43,16.00
2009,09,27,11,44,16.00
2009,09,27,11,45,16.10
2009,09,27,11,46,16.10
2009,09,27,11,47,16.20
2009,09,27,11,48,16.20
2009,09,27,11,49,16.10
2009,09,27,11,50,16.10
2009,09,27,11,51,16.00
2009,09,27,11,52,16.00
2009,09,27,11,53,16.00
2009,09,27,11,54,16.10
2009,09,27,11,55,16.10
2009,09,27,11,56,16.20
2009,09,27,11,57,16.20
2009,09,27,11,58,16.30
2009,09,27,11,59,16.30
2009,09,27,12,00,16.30
2009,09,27,12,01,16.40
2009,09,27,12,02,16.40
2009,09,27,12,03,16.50
2009,09,27,12,04,16.40
2009,09,27,12,05,16.40
2009,09,27,12,06,16.50
2009,09,27,12,07,16.50
2009,09,27,12,08,16.50
2009,09,27,12,09,16.60
2009,09,27,12,10,16.60
2009,09,27,12,11,16.50
2009,09,27,12,12,16.40
2009,09,27,12,13,16.40
2009,09,27,12,14,16.40
2009,09,27,12,15,16.40
2009,09,27,12,16,16.40
2009,09,27,12,17,16.40
2009,09,27,12,18,16.40
2009,09,27,12,19,16.40
2009,09,27,12,20,16.50
2009,09,27,12,21,16.50
2009,09,27,12,22,16.50
2009,09,27,12,23,16.60
2009,09,27,12,24,16.70
2009,09,27,12,25,16.80
2009,09,27,12,26,16.80
2009,09,27,12,27,16.90
2009,09,27,12,28,17.00
2009,09,27,12,29,17.10
2009,09,27,12,30,17.10
2009,09,27,12,31,17.20
2009,09,27,12,32,17.20
2009,09,27,12,33,17.10
2009,09,27,12,34,17.10
2009,09,27,12,35,17.10
2009,09,27,12,36,17.10
2009,09,27,12,37,17.10
2009,09,27,12,38,17.10
2009,09,27,12,39,17.00
2009,09,27,12,40,17.00
2009,09,27,12,41,17.00
2009,09,27,12,42,17.10
2009,09,27,12,43,17.20
2009,09,27,12,44,17.20
2009,09,27,12,45,17.30
2009,09,27,12,46,17.40
2009,09,27,12,47,17.50
2009,09,27,12,48,17.60
2009,09,27,12,49,17.70
2009,09,27,12,50,17.80
2009,09,27,12,51,17.90
2009,09,27,12,52,17.90
2009,09,27,12,53,17.80
2009,09,27,12,54,17.70
2009,09,27,12,55,17.60
2009,09,27,12,56,17.60
2009,09,27,12,57,17.60
2009,09,27,12,58,17.60
2009,09,27,12,59,17.70
2009,09,27,13,00,17.70
2009,09,27,13,01,17.80
2009,09,27,13,02,17.80
2009,09,27,13,03,17.80
2009,09,27,13,04,17.80
2009,09,27,13,05,17.70
2009,09,27,13,06,17.60
2009,09,27,13,07,17.60
2009,09,27,13,08,17.70
2009,09,27,13,09,17.70
2009,09,27,13,10,17.70
2009,09,27,13,11,17.70
2009,09,27,13,12,17.70
2009,09,27,13,13,17.60
2009,09,27,13,14,17.60
2009,09,27,13,15,17.50
2009,09,27,13,16,17.50
2009,09,27,13,17,17.50
2009,09,27,13,18,17.50
2009,09,27,13,19,17.50
2009,09,27,13,20,17.40
2009,09,27,13,21,17.30
2009,09,27,13,22,17.30
2009,09,27,13,23,17.30
2009,09,27,13,24,17.30
2009,09,27,13,25,17.30
2009,09,27,13,26,17.30
2009,09,27,13,27,17.40
2009,09,27,13,28,17.40
2009,09,27,13,29,17.30
2009,09,27,13,30,17.30
2009,09,27,13,31,17.20
2009,09,27,13,32,17.20
2009,09,27,13,33,17.20
2009,09,27,13,34,17.10
2009,09,27,13,35,17.20
2009,09,27,13,36,17.20
2009,09,27,13,37,17.20
2009,09,27,13,38,17.30
2009,09,27,13,39,17.30
2009,09,27,13,40,17.30
2009,09,27,13,41,17.40
2009,09,27,13,42,17.50
2009,09,27,13,43,17.60
2009,09,27,13,44,17.50
2009,09,27,13,45,17.40
2009,09,27,13,46,17.40
2009,09,27,13,47,17.30
2009,09,27,13,48,17.40
2009,09,27,13,49,17.40
2009,09,27,13,50,17.50
2009,09,27,13,51,17.60
2009,09,27,13,52,17.70
2009,09,27,13,53,17.80
2009,09,27,13,54,17.90
2009,09,27,13,55,17.80
2009,09,27,13,56,17.80
2009,09,27,13,57,17.70
2009,09,27,13,58,17.60
2009,09,27,13,59,17.60
2009,09,27,14,00,17.60
2009,09,27,14,01,17.60
2009,09,27,14,02,17.60
2009,09,27,14,03,17.70
2009,09,27,14,04,17.70
2009,09,27,14,05,17.70
2009,09,27,14,06,17.80
2009,09,27,14,07,17.80
2009,09,27,14,08,17.90
2009,09,27,14,09,17.90
2009,09,27,14,10,18.00
2009,09,27,14,11,18.10
2009,09,27,14,12,18.10
2009,09,27,14,13,18.00
2009,09,27,14,14,17.90
2009,09,27,14,15,17.90
2009,09,27,14,16,17.90
2009,09,27,14,17,17.90
2009,09,27,14,18,17.90
2009,09,27,14,19,17.90
2009,09,27,14,20,17.90
2009,09,27,14,21,17.90
2009,09,27,14,22,18.00
2009,09,27,14,23,18.00
2009,09,27,14,24,18.00
2009,09,27,14,25,18.00
2009,09,27,14,26,18.00
2009,09,27,14,27,18.00
2009,09,27,14,28,18.10
2009,09,27,14,29,18.20
2009,09,27,14,30,18.20
2009,09,27,14,31,18.20
2009,09,27,14,32,18.20
2009,09,27,14,33,18.10
2009,09,27,14,34,18.00
2009,09,27,14,35,18.00
2009,09,27,14,36,18.10
2009,09,27,14,37,18.10
2009,09,27,14,38,18.20
2009,09,27,14,39,18.20
2009,09,27,14,40,18.20
2009,09,27,14,41,18.10
2009,09,27,14,42,18.00
2009,09,27,14,43,17.90
2009,09,27,14,44,17.90
2009,09,27,14,45,17.80
2009,09,27,14,46,17.80
2009,09,27,14,47,17.80
2009,09,27,14,48,17.80
2009,09,27,14,49,17.80
2009,09,27,14,50,17.80
2009,09,27,14,51,17.80
2009,09,27,14,52,17.80
2009,09,27,14,53,17.80
2009,09,27,14,54,17.80
2009,09,27,14,55,17.90
2009,09,27,14,56,17.90
2009,09,27,14,57,18.00
2009,09,27,14,58,18.00
2009,09,27,14,59,18.10
2009,09,27,15,00,18.20
2009,09,27,15,01,18.20
2009,09,27,15,02,18.30
2009,09,27,15,03,18.30
2009,09,27,15,04,18.40
2009,09,27,15,05,18.40
2009,09,27,15,06,18.40
2009,09,27,15,07,18.40
2009,09,27,15,08,18.40
2009,09,27,15,09,18.40
2009,09,27,15,10,18.40
2009,09,27,15,11,18.30
2009,09,27,15,12,18.40
2009,09,27,15,13,18.40
2009,09,27,15,14,18.50
2009,09,27,15,15,18.50
2009,09,27,15,16,18.60
2009,09,27,15,17,18.50
2009,09,27,15,18,18.40
2009,09,27,15,19,18.30
2009,09,27,15,20,18.30
2009,09,27,15,21,18.30
2009,09,27,15,22,18.30
2009,09,27,15,23,18.30
2009,09,27,15,24,18.30
2009,09,27,15,25,18.30
2009,09,27,15,26,18.30
2009,09,27,15,27,18.30
2009,09,27,15,28,18.30
2009,09,27,15,29,18.20
2009,09,27,15,30,18.00
2009,09,27,15,31,17.90
2009,09,27,15,32,17.80
2009,09,27,15,33,17.90
2009,09,27,15,34,17.80
2009,09,27,15,35,17.80
2009,09,27,15,36,17.80
2009,09,27,15,37,17.80
2009,09,27,15,38,17.80
2009,09,27,15,39,17.90
2009,09,27,15,40,17.90
2009,09,27,15,41,17.90
2009,09,27,15,42,18.00
2009,09,27,15,43,18.00
2009,09,27,15,44,18.00
2009,09,27,15,45,17.90
2009,09,27,15,46,17.80
2009,09,27,15,47,17.80
2009,09,27,15,48,17.80
2009,09,27,15,49,17.80
2009,09,27,15,50,17.90
2009,09,27,15,51,17.90
2009,09,27,15,52,17.90
2009,09,27,15,53,17.90
2009,09,27,15,54,18.00
2009,09,27,15,55,18.00
2009,09,27,15,56,18.20
2009,09,27,15,57,18.30
2009,09,27,15,58,18.40
2009,09,27,15,59,18.50
2009,09,27,16,00,18.60
2009,09,27,16,01,18.60
2009,09,27,16,02,18.70
2009,09,27,16,03,18.70
2009,09,27,16,04,18.80
2009,09,27,16,05,18.80
2009,09,27,16,06,18.90
2009,09,27,16,07,18.90
2009,09,27,16,08,18.90
2009,09,27,16,09,18.80
2009,09,27,16,10,18.80
2009,09,27,16,11,18.80
2009,09,27,16,12,18.70
2009,09,27,16,13,18.80
2009,09,27,16,14,18.80
2009,09,27,16,15,18.90
2009,09,27,16,16,18.90
2009,09,27,16,17,18.90
2009,09,27,16,18,19.00
2009,09,27,16,19,19.00
2009,09,27,16,20,19.00
2009,09,27,16,21,19.10
2009,09,27,16,22,19.00
2009,09,27,16,23,18.90
2009,09,27,16,24,18.70
2009,09,27,16,25,18.60
2009,09,27,16,26,18.40
2009,09,27,16,27,18.30
2009,09,27,16,28,18.20
2009,09,27,16,29,18.20
2009,09,27,16,30,18.20
2009,09,27,16,31,18.10
2009,09,27,16,32,17.90
2009,09,27,16,33,17.70
2009,09,27,16,34,17.60
2009,09,27,16,35,17.50
2009,09,27,16,36,17.40
2009,09,27,16,37,17.40
2009,09,27,16,38,17.30
2009,09,27,16,39,17.20
2009,09,27,16,40,17.10
2009,09,27,16,41,17.00
2009,09,27,16,42,16.90
2009,09,27,16,43,16.90
2009,09,27,16,44,16.90
2009,09,27,16,45,16.80
2009,09,27,16,46,16.70
2009,09,27,16,47,16.70
2009,09,27,16,48,16.60
2009,09,27,16,49,16.60
2009,09,27,16,50,16.60
2009,09,27,16,51,16.60
2009,09,27,16,52,16.60
2009,09,27,16,53,16.60
2009,09,27,16,54,16.60
2009,09,27,16,55,16.60
2009,09,27,16,56,16.60
2009,09,27,16,57,16.60
2009,09,27,16,58,16.60
2009,09,27,16,59,16.50
2009,09,27,17,00,16.50
2009,09,27,17,01,16.50
2009,09,27,17,02,16.40
2009,09,27,17,03,16.40
2009,09,27,17,04,16.40
2009,09,27,17,05,16.40
2009,09,27,17,06,16.40
2009,09,27,17,07,16.40
2009,09,27,17,08,16.40
2009,09,27,17,09,16.30
2009,09,27,17,10,16.30
2009,09,27,17,11,16.30
2009,09,27,17,12,16.30
2009,09,27,17,13,16.30
2009,09,27,17,14,16.30
2009,09,27,17,15,16.30
2009,09,27,17,16,16.30
2009,09,27,17,17,16.30
2009,09,27,17,18,16.30
2009,09,27,17,19,16.30
2009,09,27,17,20,16.20
2009,09,27,17,21,16.20
2009,09,27,17,22,16.20
2009,09,27,17,23,16.20
2009,09,27,17,24,16.20
2009,09,27,17,25,16.20
2009,09,27,17,26,16.10
2009,09,27,17,27,16.10
2009,09,27,17,28,16.10
2009,09,27,17,29,16.00
2009,09,27,17,30,16.00
2009,09,27,17,31,15.90
2009,09,27,17,32,15.90
2009,09,27,17,33,15.80
2009,09,27,17,34,15.80
2009,09,27,17,35,15.70
2009,09,27,17,36,15.70
2009,09,27,17,37,15.60
2009,09,27,17,38,15.60
2009,09,27,17,39,15.60
2009,09,27,17,40,15.60
2009,09,27,17,41,15.50
2009,09,27,17,42,15.40
2009,09,27,17,43,15.40
2009,09,27,17,44,15.40
2009,09,27,17,45,15.30
2009,09,27,17,46,15.30
2009,09,27,17,47,15.30
2009,09,27,17,48,15.20
2009,09,27,17,49,15.20
2009,09,27,17,50,15.20
2009,09,27,17,51,15.20
2009,09,27,17,52,15.10
2009,09,27,17,53,15.00
2009,09,27,17,54,15.00
2009,09,27,17,55,15.00
2009,09,27,17,56,15.00
2009,09,27,17,57,15.00
2009,09,27,17,58,15.00
2009,09,27,17,59,15.00
2009,09,27,18,00,15.00
2009,09,27,18,01,14.90
2009,09,27,18,02,14.90
2009,09,27,18,03,14.80
2009,09,27,18,04,14.80
2009,09,27,18,05,14.80
2009,09,27,18,06,14.80
2009,09,27,18,07,14.80
2009,09,27,18,08,14.80
2009,09,27,18,09,14.80
2009,09,27,18,10,14.80
2009,09,27,18,11,14.80
2009,09,27,18,12,14.70
2009,09,27,18,13,14.70
2009,09,27,18,14,14.70
2009,09,27,18,15,14.70
2009,09,27,18,16,14.70
2009,09,27,18,17,14.70
2009,09,27,18,18,14.60
2009,09,27,18,19,14.60
2009,09,27,18,20,14.60
2009,09,27,18,21,14.60
2009,09,27,18,22,14.50
2009,09,27,18,23,14.50
2009,09,27,18,24,14.50
2009,09,27,18,25,14.40
2009,09,27,18,26,14.40
2009,09,27,18,27,14.40
2009,09,27,18,28,14.40
2009,09,27,18,29,14.40
2009,09,27,18,30,14.40
2009,09,27,18,31,14.40
2009,09,27,18,32,14.40
2009,09,27,18,33,14.30
2009,09,27,18,34,14.30
2009,09,27,18,35,14.30
2009,09,27,18,36,14.30
2009,09,27,18,37,14.20
2009,09,27,18,38,14.20
2009,09,27,18,39,14.20
2009,09,27,18,40,14.20
2009,09,27,18,41,14.10
2009,09,27,18,42,14.10
2009,09,27,18,43,14.10
2009,09,27,18,44,14.10
2009,09,27,18,45,14.10
2009,09,27,18,46,14.00
2009,09,27,18,47,14.00
2009,09,27,18,48,14.00
2009,09,27,18,49,13.90
2009,09,27,18,50,13.90
2009,09,27,18,51,13.90
2009,09,27,18,52,13.90
2009,09,27,18,53,13.80
2009,09,27,18,54,13.80
2009,09,27,18,55,13.80
2009,09,27,18,56,13.80
2009,09,27,18,57,13.80
2009,09,27,18,58,13.70
2009,09,27,18,59,13.70
2009,09,27,19,00,13.70
2009,09,27,19,01,13.60
2009,09,27,19,02,13.60
2009,09,27,19,03,13.60
2009,09,27,19,04,13.50
2009,09,27,19,05,13.50
2009,09,27,19,06,13.40
2009,09,27,19,07,13.40
2009,09,27,19,08,13.30
2009,09,27,19,09,13.30
2009,09,27,19,10,13.30
2009,09,27,19,11,13.20
2009,09,27,19,12,13.20
2009,09,27,19,13,13.20
2009,09,27,19,14,13.10
2009,09,27,19,15,13.10
2009,09,27,19,16,13.00
2009,09,27,19,17,13.00
2009,09,27,19,18,12.90
2009,09,27,19,19,12.90
2009,09,27,19,20,12.80
2009,09,27,19,21,12.80
2009,09,27,19,22,12.80
2009,09,27,19,23,12.70
2009,09,27,19,24,12.70
2009,09,27,19,25,12.60
2009,09,27,19,26,12.60
2009,09,27,19,27,12.60
2009,09,27,19,28,12.50
2009,09,27,19,29,12.50
2009,09,27,19,30,12.40
2009,09,27,19,31,12.40
2009,09,27,19,32,12.40
2009,09,27,19,33,12.40
2009,09,27,19,34,12.30
2009,09,27,19,35,12.30
2009,09,27,19,36,12.30
2009,09,27,19,37,12.20
2009,09,27,19,38,12.20
2009,09,27,19,39,12.20
2009,09,27,19,40,12.10
2009,09,27,19,41,12.10